QPF
0.10 0.07 0.04 0.03 0.02 0.01 0.02 0.01 0.00 0.00 0.00 0.00 0.00 0.00 0.00 0.00 0.00 0.00 0.00 0.00 0.00 0.00 0.01 0.01 0.01 0.01 0.02 0.01 0.01 0.01 0.01 0.01 0.01 0.01 0.01 0.01 0.01 0.01 0.01 0.00 0.00 0.00 0.00
0.12 0.10 0.05 0.03 0.02 0.01 0.02 0.02 0.01 0.00 0.00 0.00 0.00 0.00 0.00 0.00 0.00 0.00 0.00 0.00 0.00 0.00 0.00 0.01 0.01 0.00 0.00 0.01 0.01 0.01 0.01 0.01 0.01 0.01 0.01 0.00 0.00 0.00 0.00 0.00 0.00 0.00 0.00
0.12 0.12 0.07 0.05 0.03 0.01 0.01 0.01 0.01 0.00 0.00 0.00 0.00 0.00 0.00 0.00 0.00 0.00 0.00 0.00 0.00 0.00 0.00 0.00 0.01 0.00 0.00 0.01 0.01 0.01 0.00 0.01 0.01 0.02 0.01 0.01 0.00 0.00 0.00 0.00 0.00 0.00 0.00
0.12 0.15 0.13 0.08 0.05 0.04 0.02 0.01 0.02 0.02 0.01 0.00 0.00 0.00 0.00 0.00 0.00 0.00 0.00 0.00 0.00 0.00 0.00 0.00 0.00 0.00 0.00 0.00 0.00 0.01 0.01 0.01 0.00 0.01 0.01 0.01 0.01 0.01 0.00 0.00 0.00 0.00 0.00
0.13 0.17 0.17 0.14 0.11 0.10 0.06 0.03 0.01 0.02 0.01 0.01 0.00 0.00 0.00 0.00 0.00 0.00 0.00 0.00 0.00 0.00 0.00 0.00 0.00 0.00 0.00 0.00 0.00 0.00 0.01 0.00 0.00 0.00 0.00 0.01 0.01 0.01 0.01 0.01 0.00 0.01 0.01
0.15 0.20 0.21 0.18 0.18 0.16 0.12 0.08 0.04 0.03 0.02 0.01 0.01 0.00 0.00 0.00 0.00 0.00 0.00 0.00 0.00 0.00 0.01 0.00 0.00 0.00 0.00 0.00 0.00 0.00 0.01 0.00 0.00 0.00 0.01 0.01 0.01 0.01 0.01 0.00 0.00 0.01 0.01
0.14 0.16 0.15 0.18 0.18 0.16 0.14 0.11 0.10 0.09 0.06 0.03 0.03 0.03 0.02 0.01 0.00 0.00 0.00 0.00 0.00 0.00 0.01 0.00 0.00 0.00 0.00 0.00 0.00 0.00 0.00 0.00 0.00 0.00 0.00 0.00 0.01 0.01 0.00 0.00 0.00 0.00 0.01
0.14 0.14 0.12 0.14 0.19 0.20 0.17 0.15 0.15 0.14 0.10 0.05 0.07 0.09 0.09 0.07 0.02 0.01 0.01 0.01 0.00 0.00 0.00 0.01 0.01 0.00 0.00 0.00 0.00 0.00 0.00 0.00 0.00 0.00 0.00 0.00 0.00 0.00 0.00 0.00 0.00 0.00 0.01
0.12 0.12 0.12 0.14 0.18 0.18 0.17 0.17 0.18 0.20 0.17 0.11 0.09 0.11 0.11 0.11 0.09 0.04 0.02 0.01 0.01 0.01 0.01 0.01 0.01 0.01 0.01 0.00 0.00 0.00 0.00 0.00 0.00 0.00 0.00 0.00 0.00 0.00 0.00 0.00 0.00 0.00 0.01
0.09 0.11 0.13 0.14 0.15 0.18 0.17 0.17 0.17 0.18 0.19 0.15 0.11 0.08 0.07 0.08 0.11 0.10 0.07 0.04 0.03 0.02 0.01 0.01 0.01 0.01 0.02 0.01 0.01 0.01 0.00 0.00 0.00 0.00 0.00 0.00 0.00 0.00 0.00 0.00 0.00 0.00 0.00
0.12 0.13 0.15 0.16 0.16 0.17 0.17 0.19 0.19 0.19 0.16 0.14 0.13 0.10 0.08 0.09 0.09 0.11 0.12 0.10 0.07 0.04 0.03 0.03 0.02 0.02 0.02 0.02 0.03 0.05 0.04 0.01 0.00 0.00 0.01 0.01 0.01 0.01 0.01 0.00 0.00 0.00 0.00
0.13 0.15 0.17 0.17 0.16 0.16 0.17 0.19 0.20 0.19 0.20 0.18 0.16 0.13 0.12 0.11 0.11 0.12 0.11 0.12 0.13 0.09 0.06 0.05 0.04 0.03 0.03 0.03 0.06 0.12 0.10 0.04 0.00 0.00 0.00 0.01 0.02 0.02 0.01 0.01 0.01 0.00 0.00
0.12 0.12 0.14 0.14 0.15 0.18 0.16 0.16 0.18 0.18 0.19 0.19 0.18 0.16 0.12 0.10 0.10 0.11 0.13 0.11 0.10 0.08 0.06 0.06 0.06 0.04 0.04 0.03 0.06 0.10 0.07 0.03 0.00 0.00 0.00 0.00 0.01 0.02 0.02 0.01 0.00 0.00 0.01
0.14 0.14 0.15 0.15 0.17 0.17 0.17 0.18 0.16 0.15 0.18 0.20 0.19 0.18 0.15 0.12 0.11 0.11 0.12 0.13 0.12 0.11 0.10 0.09 0.07 0.07 0.06 0.04 0.06 0.09 0.04 0.03 0.01 0.00 0.00 0.00 0.00 0.01 0.02 0.02 0.01 0.01 0.01
0.13 0.12 0.13 0.13 0.13 0.14 0.14 0.16 0.16 0.14 0.16 0.17 0.17 0.17 0.16 0.13 0.12 0.11 0.11 0.13 0.14 0.13 0.13 0.12 0.09 0.06 0.05 0.04 0.05 0.04 0.03 0.02 0.02 0.01 0.01 0.00 0.00 0.01 0.01 0.02 0.02 0.01 0.01
0.13 0.14 0.15 0.15 0.14 0.13 0.12 0.12 0.13 0.13 0.14 0.14 0.14 0.14 0.14 0.12 0.11 0.10 0.10 0.11 0.12 0.12 0.11 0.10 0.09 0.07 0.05 0.03 0.03 0.02 0.02 0.02 0.02 0.02 0.03 0.02 0.01 0.01 0.01 0.02 0.02 0.02 0.01
0.10 0.11 0.12 0.13 0.12 0.10 0.10 0.10 0.12 0.13 0.13 0.11 0.10 0.10 0.11 0.10 0.11 0.10 0.10 0.10 0.11 0.11 0.11 0.11 0.10 0.08 0.06 0.05 0.04 0.03 0.03 0.03 0.03 0.03 0.03 0.03 0.03 0.03 0.02 0.03 0.03 0.02 0.01
0.09 0.08 0.08 0.08 0.08 0.07 0.07 0.06 0.07 0.07 0.08 0.07 0.08 0.10 0.11 0.13 0.15 0.14 0.15 0.15 0.14 0.11 0.11 0.13 0.14 0.11 0.08 0.07 0.06 0.06 0.06 0.06 0.07 0.05 0.04 0.04 0.03 0.03 0.03 0.03 0.04 0.02 0.01
0.06 0.05 0.05 0.06 0.06 0.06 0.06 0.04 0.04 0.05 0.05 0.05 0.06 0.08 0.09 0.10 0.12 0.12 0.13 0.17 0.18 0.17 0.15 0.13 0.12 0.12 0.11 0.08 0.08 0.08 0.06 0.08 0.06 0.04 0.04 0.04 0.04 0.04 0.04 0.03 0.02 0.02 0.02
0.02 0.02 0.03 0.03 0.02 0.03 0.04 0.04 0.04 0.05 0.05 0.04 0.05 0.07 0.09 0.10 0.12 0.13 0.13 0.14 0.14 0.13 0.13 0.12 0.11 0.11 0.10 0.08 0.10 0.12 0.10 0.12 0.08 0.05 0.04 0.04 0.04 0.04 0.03 0.03 0.03 0.02 0.01
0.01 0.01 0.02 0.02 0.02 0.01 0.01 0.02 0.02 0.04 0.05 0.06 0.06 0.08 0.09 0.10 0.10 0.10 0.10 0.12 0.12 0.11 0.11 0.11 0.12 0.11 0.10 0.08 0.09 0.12 0.12 0.13 0.11 0.09 0.10 0.09 0.08 0.08 0.06 0.03 0.02 0.01 0.01
0.00 0.00 0.01 0.01 0.02 0.01 0.01 0.01 0.02 0.04 0.05 0.06 0.07 0.08 0.07 0.07 0.08 0.08 0.10 0.11 0.12 0.12 0.13 0.13 0.12 0.11 0.09 0.07 0.08 0.07 0.09 0.11 0.09 0.10 0.11 0.08 0.06 0.06 0.05 0.04 0.02 0.01 0.01
0.00 0.00 0.00 0.01 0.01 0.02 0.02 0.02 0.03 0.04 0.05 0.07 0.08 0.08 0.07 0.07 0.08 0.08 0.08 0.09 0.08 0.09 0.11 0.11 0.11 0.08 0.06 0.05 0.05 0.05 0.07 0.09 0.07 0.05 0.07 0.05 0.04 0.04 0.02 0.02 0.02 0.02 0.02
0.01 0.01 0.01 0.01 0.01 0.01 0.01 0.02 0.02 0.03 0.05 0.06 0.08 0.09 0.09 0.09 0.09 0.10 0.11 0.13 0.09 0.07 0.09 0.10 0.09 0.06 0.05 0.04 0.04 0.05 0.06 0.05 0.04 0.05 0.05 0.03 0.03 0.02 0.02 0.02 0.03 0.04 0.03
0.01 0.01 0.01 0.01 0.01 0.01 0.01 0.01 0.01 0.04 0.05 0.05 0.06 0.08 0.11 0.09 0.09 0.10 0.11 0.14 0.11 0.06 0.06 0.06 0.06 0.05 0.04 0.04 0.05 0.06 0.07 0.08 0.06 0.05 0.04 0.02 0.02 0.02 0.02 0.02 0.02 0.02 0.03
0.01 0.01 0.01 0.01 0.01 0.01 0.01 0.02 0.03 0.04 0.05 0.07 0.08 0.08 0.10 0.09 0.09 0.09 0.10 0.11 0.10 0.07 0.03 0.02 0.02 0.02 0.01 0.02 0.04 0.08 0.10 0.12 0.10 0.06 0.05 0.04 0.04 0.03 0.03 0.03 0.02 0.01 0.01
MSLP
1014.34 1014.30 1014.27 1014.29 1014.40 1014.60 1014.85 1015.12 1015.36 1015.51 1015.55 1015.49 1015.38 1015.26 1015.21 1015.28 1015.48 1015.82 1016.25 1016.71 1017.15 1017.50 1017.76 1017.93 1018.03 1018.09 1018.17 1018.29 1018.45 1018.65 1018.87 1019.08 1019.28 1019.44 1019.60 1019.76 1019.93 1020.13 1020.35 1020.57 1020.75 1020.88 1020.94
1014.06 1013.96 1013.88 1013.88 1013.97 1014.16 1014.41 1014.68 1014.92 1015.07 1015.12 1015.07 1014.98 1014.90 1014.88 1014.98 1015.21 1015.58 1016.03 1016.50 1016.96 1017.35 1017.65 1017.87 1018.03 1018.16 1018.30 1018.46 1018.66 1018.87 1019.08 1019.27 1019.44 1019.58 1019.72 1019.88 1020.05 1020.26 1020.49 1020.71 1020.90 1021.04 1021.10
1013.80 1013.66 1013.56 1013.56 1013.66 1013.86 1014.12 1014.40 1014.65 1014.80 1014.86 1014.83 1014.75 1014.68 1014.69 1014.80 1015.03 1015.39 1015.82 1016.29 1016.73 1017.13 1017.45 1017.71 1017.93 1018.13 1018.33 1018.55 1018.78 1019.01 1019.22 1019.40 1019.54 1019.66 1019.78 1019.92 1020.09 1020.31 1020.54 1020.78 1020.98 1021.12 1021.20
1013.52 1013.38 1013.30 1013.32 1013.46 1013.70 1014.00 1014.31 1014.57 1014.74 1014.81 1014.79 1014.73 1014.67 1014.67 1014.77 1014.98 1015.29 1015.67 1016.08 1016.48 1016.84 1017.16 1017.44 1017.70 1017.96 1018.23 1018.50 1018.78 1019.04 1019.26 1019.43 1019.56 1019.66 1019.76 1019.88 1020.05 1020.26 1020.50 1020.75 1020.96 1021.13 1021.22
1013.20 1013.09 1013.06 1013.14 1013.34 1013.64 1013.99 1014.34 1014.64 1014.85 1014.95 1014.95 1014.90 1014.85 1014.84 1014.90 1015.05 1015.29 1015.58 1015.90 1016.21 1016.51 1016.79 1017.07 1017.35 1017.64 1017.97 1018.30 1018.63 1018.93 1019.17 1019.35 1019.48 1019.57 1019.66 1019.78 1019.94 1020.14 1020.38 1020.64 1020.86 1021.04 1021.16
1012.83 1012.76 1012.79 1012.93 1013.21 1013.58 1014.01 1014.42 1014.77 1015.03 1015.17 1015.21 1015.19 1015.15 1015.12 1015.15 1015.24 1015.38 1015.56 1015.76 1015.96 1016.16 1016.37 1016.61 1016.88 1017.21 1017.57 1017.96 1018.34 1018.68 1018.97 1019.18 1019.32 1019.43 1019.52 1019.63 1019.78 1019.99 1020.22 1020.47 1020.71 1020.90 1021.03
1012.41 1012.37 1012.45 1012.66 1013.01 1013.45 1013.94 1014.42 1014.84 1015.15 1015.35 1015.45 1015.48 1015.47 1015.45 1015.45 1015.48 1015.53 1015.59 1015.67 1015.74 1015.83 1015.95 1016.13 1016.38 1016.71 1017.10 1017.52 1017.96 1018.35 1018.68 1018.94 1019.12 1019.25 1019.36 1019.48 1019.64 1019.84 1020.07 1020.31 1020.54 1020.73 1020.87
1011.97 1011.93 1012.03 1012.28 1012.67 1013.16 1013.70 1014.23 1014.71 1015.09 1015.36 1015.54 1015.64 1015.68 1015.70 1015.71 1015.70 1015.69 1015.66 1015.62 1015.58 1015.56 1015.59 1015.70 1015.91 1016.22 1016.62 1017.07 1017.54 1017.98 1018.37 1018.67 1018.91 1019.08 1019.22 1019.37 1019.54 1019.74 1019.96 1020.19 1020.41 1020.59 1020.72
1011.54 1011.47 1011.54 1011.78 1012.17 1012.67 1013.23 1013.79 1014.31 1014.75 1015.11 1015.37 1015.56 1015.69 1015.78 1015.83 1015.84 1015.80 1015.72 1015.61 1015.48 1015.38 1015.33 1015.38 1015.54 1015.82 1016.21 1016.67 1017.16 1017.64 1018.07 1018.43 1018.71 1018.94 1019.13 1019.31 1019.50 1019.71 1019.92 1020.14 1020.35 1020.51 1020.63
1011.17 1011.02 1011.03 1011.22 1011.56 1012.02 1012.55 1013.11 1013.64 1014.13 1014.55 1014.90 1015.20 1015.43 1015.62 1015.75 1015.82 1015.81 1015.73 1015.61 1015.45 1015.30 1015.21 1015.21 1015.33 1015.58 1015.94 1016.39 1016.88 1017.37 1017.82 1018.22 1018.55 1018.82 1019.06 1019.28 1019.50 1019.72 1019.95 1020.16 1020.35 1020.50 1020.61
1010.88 1010.64 1010.56 1010.66 1010.91 1011.29 1011.75 1012.26 1012.78 1013.28 1013.74 1014.17 1014.56 1014.91 1015.22 1015.45 1015.62 1015.69 1015.68 1015.59 1015.46 1015.33 1015.23 1015.21 1015.31 1015.52 1015.85 1016.26 1016.72 1017.19 1017.64 1018.04 1018.40 1018.71 1018.99 1019.25 1019.50 1019.75 1019.99 1020.20 1020.38 1020.52 1020.63
1010.71 1010.38 1010.20 1010.19 1010.32 1010.59 1010.96 1011.39 1011.85 1012.33 1012.81 1013.28 1013.75 1014.20 1014.61 1014.97 1015.25 1015.44 1015.54 1015.54 1015.49 1015.42 1015.36 1015.36 1015.45 1015.63 1015.91 1016.26 1016.66 1017.08 1017.49 1017.87 1018.23 1018.56 1018.87 1019.16 1019.45 1019.73 1019.98 1020.21 1020.39 1020.54 1020.65
1010.67 1010.27 1010.01 1009.89 1009.91 1010.06 1010.31 1010.64 1011.01 1011.44 1011.90 1012.38 1012.89 1013.40 1013.91 1014.37 1014.77 1015.09 1015.31 1015.45 1015.51 1015.54 1015.56 1015.60 1015.70 1015.86 1016.09 1016.37 1016.69 1017.02 1017.36 1017.69 1018.02 1018.34 1018.66 1018.99 1019.30 1019.61 1019.89 1020.13 1020.33 1020.49 1020.62
1010.78 1010.34 1010.02 1009.83 1009.76 1009.80 1009.93 1010.14 1010.42 1010.76 1011.16 1011.61 1012.11 1012.65 1013.20 1013.73 1014.23 1014.66 1015.02 1015.29 1015.49 1015.64 1015.76 1015.87 1015.99 1016.14 1016.32 1016.52 1016.74 1016.98 1017.22 1017.48 1017.75 1018.05 1018.36 1018.70 1019.04 1019.37 1019.68 1019.95 1020.18 1020.35 1020.50
1011.03 1010.59 1010.26 1010.03 1009.90 1009.85 1009.89 1009.99 1010.16 1010.40 1010.71 1011.09 1011.53 1012.04 1012.58 1013.14 1013.69 1014.21 1014.67 1015.07 1015.41 1015.68 1015.90 1016.09 1016.26 1016.40 1016.53 1016.66 1016.78 1016.91 1017.06 1017.23 1017.44 1017.70 1018.00 1018.34 1018.70 1019.05 1019.39 1019.69 1019.93 1020.14 1020.30
1011.41 1011.02 1010.71 1010.47 1010.31 1010.22 1010.18 1010.19 1010.26 1010.39 1010.59 1010.87 1011.22 1011.65 1012.14 1012.67 1013.23 1013.79 1014.32 1014.81 1015.25 1015.63 1015.95 1016.21 1016.42 1016.57 1016.67 1016.74 1016.78 1016.82 1016.87 1016.97 1017.12 1017.34 1017.63 1017.97 1018.34 1018.72 1019.08 1019.40 1019.67 1019.89 1020.07
1011.90 1011.58 1011.32 1011.11 1010.95 1010.83 1010.75 1010.69 1010.68 1010.71 1010.79 1010.95 1011.19 1011.51 1011.91 1012.37 1012.88 1013.42 1013.97 1014.51 1015.02 1015.47 1015.87 1016.20 1016.44 1016.60 1016.69 1016.72 1016.71 1016.69 1016.69 1016.73 1016.85 1017.05 1017.33 1017.68 1018.07 1018.47 1018.84 1019.18 1019.46 1019.68 1019.87
1012.48 1012.23 1012.02 1011.85 1011.71 1011.58 1011.47 1011.37 1011.29 1011.23 1011.22 1011.26 1011.38 1011.58 1011.86 1012.22 1012.66 1013.15 1013.67 1014.21 1014.74 1015.23 1015.67 1016.04 1016.32 1016.50 1016.59 1016.62 1016.59 1016.55 1016.54 1016.57 1016.69 1016.89 1017.19 1017.56 1017.97 1018.38 1018.77 1019.12 1019.39 1019.61 1019.78
1013.10 1012.91 1012.74 1012.60 1012.48 1012.35 1012.23 1012.10 1011.96 1011.85 1011.75 1011.70 1011.72 1011.80 1011.97 1012.22 1012.56 1012.97 1013.43 1013.93 1014.44 1014.93 1015.38 1015.77 1016.07 1016.27 1016.39 1016.44 1016.44 1016.42 1016.43 1016.50 1016.65 1016.90 1017.24 1017.64 1018.08 1018.52 1018.92 1019.26 1019.53 1019.72 1019.87
1013.73 1013.56 1013.42 1013.29 1013.17 1013.04 1012.91 1012.76 1012.59 1012.43 1012.29 1012.17 1012.11 1012.10 1012.18 1012.33 1012.57 1012.89 1013.28 1013.71 1014.17 1014.62 1015.05 1015.43 1015.74 1015.97 1016.12 1016.21 1016.26 1016.31 1016.39 1016.53 1016.76 1017.07 1017.47 1017.92 1018.40 1018.86 1019.27 1019.61 1019.86 1020.03 1020.14
1014.31 1014.14 1014.00 1013.87 1013.74 1013.60 1013.45 1013.28 1013.10 1012.92 1012.75 1012.60 1012.49 1012.43 1012.44 1012.52 1012.68 1012.92 1013.22 1013.57 1013.96 1014.35 1014.74 1015.09 1015.39 1015.64 1015.82 1015.97 1016.09 1016.23 1016.40 1016.64 1016.96 1017.36 1017.83 1018.35 1018.87 1019.35 1019.78 1020.11 1020.34 1020.48 1020.55
1014.82 1014.64 1014.48 1014.32 1014.17 1014.01 1013.84 1013.66 1013.47 1013.28 1013.10 1012.95 1012.83 1012.76 1012.74 1012.78 1012.88 1013.05 1013.28 1013.55 1013.85 1014.18 1014.50 1014.80 1015.08 1015.33 1015.55 1015.75 1015.95 1016.18 1016.45 1016.79 1017.21 1017.71 1018.25 1018.83 1019.39 1019.90 1020.34 1020.67 1020.88 1021.00 1021.03
1015.26 1015.06 1014.87 1014.68 1014.50 1014.31 1014.11 1013.92 1013.72 1013.54 1013.37 1013.23 1013.13 1013.07 1013.05 1013.08 1013.16 1013.28 1013.44 1013.65 1013.87 1014.12 1014.37 1014.63 1014.87 1015.11 1015.34 1015.59 1015.85 1016.16 1016.53 1016.96 1017.46 1018.03 1018.64 1019.26 1019.85 1020.39 1020.84 1021.17 1021.38 1021.48 1021.50
1015.62 1015.41 1015.20 1014.99 1014.78 1014.56 1014.35 1014.13 1013.93 1013.75 1013.60 1013.49 1013.41 1013.37 1013.38 1013.42 1013.49 1013.59 1013.72 1013.87 1014.03 1014.21 1014.40 1014.59 1014.80 1015.02 1015.26 1015.52 1015.83 1016.19 1016.62 1017.11 1017.67 1018.28 1018.92 1019.57 1020.18 1020.72 1021.17 1021.51 1021.73 1021.84 1021.86
1015.95 1015.74 1015.53 1015.32 1015.09 1014.85 1014.61 1014.39 1014.17 1013.99 1013.85 1013.76 1013.71 1013.70 1013.73 1013.79 1013.87 1013.97 1014.08 1014.19 1014.31 1014.43 1014.57 1014.72 1014.89 1015.09 1015.32 1015.59 1015.91 1016.29 1016.73 1017.25 1017.82 1018.44 1019.08 1019.72 1020.32 1020.86 1021.32 1021.66 1021.90 1022.03 1022.07
1016.27 1016.09 1015.91 1015.70 1015.47 1015.23 1014.97 1014.73 1014.50 1014.32 1014.17 1014.08 1014.04 1014.05 1014.10 1014.18 1014.28 1014.38 1014.48 1014.58 1014.67 1014.77 1014.88 1015.00 1015.14 1015.31 1015.52 1015.79 1016.10 1016.47 1016.90 1017.39 1017.94 1018.52 1019.12 1019.73 1020.30 1020.82 1021.27 1021.63 1021.89 1022.05 1022.14
Thickness
5770 5771 5772 5771 5770 5769 5767 5765 5765 5768 5769 5770 5771 5771 5770 5769 5768 5764 5760 5759 5757 5756 5756 5755 5754 5754 5754 5753 5753 5752 5751 5751 5750 5750 5749 5748 5748 5747 5747 5746 5746 5746 5746
5767 5768 5769 5769 5770 5769 5768 5766 5766 5767 5769 5769 5769 5770 5769 5769 5768 5765 5761 5758 5757 5756 5755 5754 5753 5753 5753 5752 5752 5751 5750 5750 5749 5748 5747 5747 5746 5745 5745 5744 5744 5743 5743
5762 5763 5765 5766 5767 5767 5767 5766 5766 5767 5766 5767 5766 5767 5767 5767 5767 5765 5762 5759 5757 5755 5754 5753 5753 5752 5752 5751 5751 5750 5750 5749 5748 5747 5746 5745 5744 5744 5743 5742 5742 5741 5741
5758 5759 5759 5760 5762 5763 5764 5764 5763 5762 5762 5762 5762 5764 5765 5764 5764 5764 5763 5760 5758 5756 5754 5753 5752 5751 5751 5750 5750 5749 5748 5748 5747 5746 5745 5744 5743 5742 5741 5740 5740 5739 5739
5753 5755 5755 5756 5756 5757 5758 5760 5759 5758 5756 5757 5758 5760 5762 5762 5762 5763 5763 5762 5760 5757 5754 5752 5751 5750 5749 5749 5749 5748 5747 5746 5745 5744 5744 5742 5741 5740 5739 5738 5738 5737 5737
5749 5751 5750 5751 5751 5750 5751 5752 5753 5753 5752 5753 5755 5756 5758 5760 5760 5760 5760 5761 5760 5758 5755 5752 5750 5749 5748 5748 5747 5747 5746 5745 5744 5743 5742 5741 5740 5738 5737 5736 5735 5735 5734
5743 5744 5745 5745 5745 5745 5745 5746 5746 5745 5745 5748 5745 5745 5750 5755 5756 5756 5757 5758 5758 5758 5755 5752 5751 5749 5748 5746 5745 5745 5744 5743 5743 5741 5740 5739 5738 5736 5735 5734 5733 5732 5731
5736 5738 5739 5740 5740 5739 5739 5740 5739 5737 5739 5741 5737 5732 5730 5736 5745 5752 5753 5753 5754 5756 5755 5753 5752 5750 5748 5746 5745 5743 5742 5741 5740 5739 5738 5737 5736 5734 5733 5731 5730 5729 5728
5729 5732 5733 5735 5735 5735 5734 5734 5734 5732 5730 5733 5734 5729 5722 5720 5729 5740 5746 5748 5749 5750 5751 5752 5751 5751 5749 5747 5744 5742 5740 5738 5737 5736 5735 5734 5732 5731 5730 5728 5727 5726 5725
5722 5725 5727 5729 5730 5731 5731 5731 5731 5730 5728 5725 5727 5729 5729 5728 5722 5723 5733 5740 5743 5744 5746 5748 5749 5749 5748 5746 5744 5741 5739 5736 5734 5732 5731 5729 5728 5727 5726 5724 5723 5722 5721
5714 5717 5721 5723 5724 5725 5727 5727 5727 5726 5726 5724 5723 5723 5723 5724 5725 5719 5718 5726 5733 5737 5740 5742 5743 5743 5743 5742 5741 5738 5735 5733 5731 5729 5727 5725 5724 5723 5722 5720 5719 5718 5717
5705 5709 5713 5716 5718 5720 5722 5723 5722 5722 5722 5722 5721 5721 5719 5717 5717 5716 5713 5716 5719 5725 5731 5734 5736 5736 5737 5737 5736 5733 5730 5727 5726 5724 5723 5721 5720 5718 5717 5715 5714 5713 5712
5694 5700 5705 5709 5712 5714 5716 5717 5717 5717 5718 5718 5717 5717 5718 5717 5717 5715 5711 5710 5712 5717 5722 5725 5727 5728 5729 5729 5729 5727 5725 5723 5721 5720 5718 5716 5715 5713 5712 5711 5709 5708 5707
5686 5693 5697 5702 5705 5707 5710 5711 5711 5712 5714 5714 5714 5714 5713 5713 5713 5712 5710 5706 5703 5705 5710 5714 5718 5720 5720 5721 5721 5719 5718 5717 5716 5714 5713 5711 5710 5708 5707 5706 5704 5703 5702
5679 5685 5689 5693 5697 5699 5701 5703 5703 5705 5708 5708 5708 5708 5707 5707 5708 5708 5708 5706 5700 5695 5697 5703 5706 5710 5711 5712 5712 5711 5712 5711 5710 5709 5707 5706 5704 5702 5701 5700 5698 5697 5696
5672 5676 5680 5683 5687 5690 5692 5694 5695 5698 5700 5700 5701 5701 5701 5701 5701 5702 5702 5701 5700 5696 5692 5696 5699 5701 5703 5704 5704 5704 5705 5705 5704 5703 5701 5700 5698 5697 5695 5694 5692 5691 5689
5664 5667 5670 5674 5677 5680 5683 5685 5687 5689 5691 5692 5694 5694 5694 5695 5695 5695 5695 5694 5693 5691 5687 5688 5692 5694 5694 5695 5695 5696 5697 5697 5696 5696 5694 5693 5692 5690 5689 5688 5686 5684 5683
5657 5660 5662 5665 5667 5670 5673 5676 5678 5681 5683 5684 5686 5686 5687 5688 5687 5688 5688 5687 5686 5686 5683 5680 5682 5684 5685 5687 5687 5688 5689 5689 5689 5688 5687 5686 5684 5683 5681 5680 5679 5678 5676
5650 5652 5654 5655 5657 5660 5663 5666 5669 5672 5674 5676 5677 5678 5679 5679 5678 5679 5679 5679 5679 5680 5678 5676 5674 5676 5677 5679 5679 5681 5681 5681 5682 5681 5679 5677 5676 5675 5674 5673 5671 5670 5669
5643 5644 5646 5648 5649 5651 5653 5655 5659 5662 5665 5667 5669 5670 5670 5670 5670 5671 5672 5672 5671 5671 5670 5669 5667 5667 5668 5671 5672 5671 5670 5673 5673 5673 5671 5669 5668 5666 5665 5664 5663 5663 5662
5638 5638 5639 5640 5641 5642 5643 5646 5650 5653 5655 5657 5659 5661 5662 5663 5664 5665 5665 5664 5664 5663 5662 5661 5661 5660 5661 5662 5663 5665 5663 5664 5664 5664 5662 5660 5658 5657 5656 5655 5655 5655 5655
5634 5634 5633 5633 5633 5634 5636 5639 5642 5645 5647 5648 5649 5651 5653 5654 5655 5656 5657 5658 5659 5657 5656 5656 5655 5655 5656 5658 5659 5659 5657 5655 5652 5655 5654 5650 5650 5647 5646 5646 5647 5647 5648
5630 5629 5628 5628 5627 5627 5630 5632 5635 5638 5639 5639 5640 5641 5644 5645 5645 5647 5649 5650 5651 5652 5654 5654 5652 5652 5652 5654 5654 5653 5653 5651 5648 5647 5646 5640 5640 5638 5637 5637 5639 5640 5640
5627 5625 5624 5623 5622 5622 5624 5627 5629 5631 5631 5631 5631 5633 5634 5635 5636 5639 5641 5642 5642 5643 5647 5648 5648 5648 5649 5650 5651 5650 5649 5646 5644 5643 5643 5635 5632 5630 5629 5629 5630 5631 5632
5625 5623 5621 5619 5618 5617 5619 5621 5624 5624 5624 5624 5624 5625 5626 5628 5630 5633 5635 5635 5635 5635 5638 5640 5641 5642 5643 5645 5647 5646 5643 5640 5636 5635 5636 5632 5627 5625 5622 5621 5622 5623 5624
5625 5622 5619 5616 5614 5613 5614 5616 5618 5618 5617 5617 5618 5618 5619 5621 5624 5627 5628 5629 5628 5629 5632 5633 5634 5636 5638 5639 5641 5642 5640 5637 5634 5630 5631 5630 5625 5624 5618 5616 5616 5616 5615